Caldwell, NJ

9:49 PM EDT on September 19, 2019 (GMT -0400)
Essex County

Weather History for KCDW - July, 2019

Change the Weather History Date:

Wednesday, July 17, 2019

  Actual Average Record
Temperature  
Mean Temperature 84 °F -  
Max Temperature 96 °F 86 °F 99 °F (1988)
Min Temperature 73 °F 62 °F 48 °F (1954)
Cooling Degree Days 19    
Growing Degree Days 34 (Base 50)    
Moisture  
Dew Point 73 °F    
Average Humidity 79    
Maximum Humidity 97    
Minimum Humidity 47    
Precipitation  
Precipitation 1.89 in - - ()
Sea Level Pressure  
Sea Level Pressure 29.93 in    
Wind  
Wind Speed 3 mph (SW)    
Max Wind Speed 10 mph    
Max Gust Speed 20 mph    
Visibility 7 miles    
Events Fog , Rain , Thunderstorm    
Averages and records for this station are not official NWS values.
T = Trace of Precipitation, MM = Missing Value Source: NWS Daily Summary

Daily Weather History Graph

Daily Weather History Graph

Search for Another Location

Airport or City:

Astronomy

Jul. 17, 2019 Rise Set
Actual Time 5:39 AM EDT 8:26 PM EDT
Civil Twilight 5:07 AM EDT 8:58 PM EDT
Nautical Twilight 4:26 AM EDT 9:39 PM EDT
Astronomical Twilight 3:40 AM EDT 10:25 PM EDT
Moon 9:13 PM EDT (7/17) 6:09 AM EDT (7/17)
Length of Visible Light 15h 51m
Length of Day
14h 46m
Waxing Gibbous, 99% of the Moon is Illuminated
Jul 17
Waxing Gibbous
Jul 24
Last Quarter
Jul 31
New
Aug 7
First Quarter
Aug 15
Full

Hourly Weather History & Observations

Time (EDT) Temp. Heat Index Dew Point Humidity Pressure Visibility Wind Dir Wind Speed Gust Speed Precip Events Conditions
12:53 AM 82.9 °F 85.8 °F 68.0 °F 60% 30.01 in 10.0 mi Variable 3.5 mph - N/A   Clear
1:53 AM 81.0 °F 83.8 °F 68.0 °F 65% 30.01 in 10.0 mi Calm Calm - N/A   Clear
2:53 AM 80.1 °F 82.7 °F 68.0 °F 67% 29.99 in 10.0 mi Calm Calm - N/A   Overcast
3:53 AM 80.1 °F 82.3 °F 66.9 °F 64% 29.98 in 10.0 mi Calm Calm - N/A   Partly Cloudy
4:53 AM 79.0 °F - 66.9 °F 66% 29.98 in 10.0 mi Calm Calm - N/A   Clear
5:53 AM 79.0 °F - 66.9 °F 66% 29.98 in 10.0 mi Calm Calm - N/A   Overcast
6:53 AM 79.0 °F - 68.0 °F 69% 29.98 in 10.0 mi Calm Calm - N/A   Clear
7:53 AM 80.1 °F 83.2 °F 70.0 °F 71% 29.99 in 10.0 mi SSW 5.8 mph - N/A   Clear
8:53 AM 81.0 °F 85.8 °F 73.0 °F 77% 29.99 in 10.0 mi SW 5.8 mph - N/A   Clear
9:53 AM 87.1 °F 95.4 °F 73.9 °F 65% 29.98 in 10.0 mi WSW 5.8 mph - N/A   Clear
10:53 AM 91.0 °F 100.4 °F 73.9 °F 57% 29.96 in 10.0 mi Variable 5.8 mph - N/A   Clear
11:53 AM 91.9 °F 101.3 °F 73.9 °F 55% 29.95 in 10.0 mi Variable 4.6 mph - N/A   Clear
12:53 PM 93.9 °F 104.0 °F 73.9 °F 52% 29.93 in 10.0 mi SW 9.2 mph - N/A   Scattered Clouds
1:53 PM 95.0 °F 103.2 °F 72.0 °F 47% 29.91 in 10.0 mi SSW 10.4 mph 17.3 mph N/A   Partly Cloudy
2:53 PM 93.9 °F 104.0 °F 73.9 °F 52% 29.89 in 10.0 mi SW 4.6 mph - N/A   Scattered Clouds
3:53 PM 93.0 °F 101.9 °F 73.0 °F 52% 29.87 in 10.0 mi Variable 3.5 mph - N/A   Partly Cloudy
4:53 PM 93.9 °F 103.4 °F 73.0 °F 51% 29.85 in 10.0 mi Variable 6.9 mph - N/A   Scattered Clouds
5:53 PM 93.9 °F 104.0 °F 73.9 °F 52% 29.85 in 10.0 mi Calm Calm - N/A   Partly Cloudy
6:53 PM 91.0 °F 102.9 °F 75.9 °F 61% 29.85 in 10.0 mi Calm Calm - N/A   Clear
7:30 PM 89.1 °F 100.2 °F 75.9 °F 65% 29.86 in 10.0 mi Variable 4.6 mph - N/A Thunderstorm Mostly Cloudy
7:53 PM 78.1 °F - 71.1 °F 79% 29.91 in 2.5 mi NNW 9.2 mph - 0.12 in Rain , Thunderstorm Heavy Rain
8:00 PM 75.0 °F - 72.0 °F 90% 29.90 in 1.2 mi Variable 6.9 mph 19.6 mph 0.18 in Rain , Thunderstorm Heavy Thunderstorms and Rain
8:09 PM 75.0 °F - 73.0 °F 94% 29.91 in 3.0 mi Variable 4.6 mph - 0.23 in Rain , Thunderstorm Thunderstorms and Rain
8:17 PM 75.0 °F - 73.0 °F 94% 29.92 in 2.5 mi SE 8.1 mph - 0.25 in Rain , Thunderstorm Thunderstorms and Rain
8:22 PM 75.9 °F - 73.9 °F 94% 29.94 in 3.0 mi Variable 5.8 mph - 0.26 in Rain , Thunderstorm Light Thunderstorms and Rain
8:37 PM 75.9 °F - 73.9 °F 94% 29.92 in 2.5 mi Calm Calm - 0.30 in Rain , Thunderstorm Light Rain
8:41 PM 75.9 °F - 73.9 °F 94% 29.92 in 6.0 mi Calm Calm - 0.30 in Rain , Thunderstorm Light Rain
8:49 PM 75.2 °F - 73.4 °F 94% 29.91 in 7.0 mi Calm Calm - 0.31 in Rain , Thunderstorm Light Rain
8:53 PM 75.9 °F - 73.9 °F 94% 29.92 in 8.0 mi Calm Calm - 0.31 in Rain , Thunderstorm Light Rain
8:57 PM 75.9 °F - 73.9 °F 94% 29.91 in 10.0 mi Calm Calm - 0.00 in Rain Light Rain
9:33 PM 75.9 °F - 75.0 °F 97% 29.92 in 7.0 mi Calm Calm - 0.03 in Rain , Thunderstorm Light Thunderstorms and Rain
9:46 PM 75.9 °F - 73.9 °F 94% 29.94 in 4.0 mi Calm Calm - 0.05 in Rain Rain
9:50 PM 77.0 °F - 73.4 °F 89% 29.94 in 1.8 mi SW 3.5 mph - 0.09 in Rain Rain
9:53 PM 75.9 °F - 73.9 °F 94% 29.96 in 1.2 mi WSW 4.6 mph - 0.13 in Rain Heavy Rain
9:58 PM 75.9 °F - 73.9 °F 94% 29.94 in 0.5 mi WSW 3.5 mph - 0.17 in Fog , Rain , Thunderstorm Heavy Thunderstorms and Rain
10:05 PM 75.9 °F - 73.9 °F 94% 29.94 in 0.5 mi WNW 8.1 mph - 0.37 in Fog , Rain , Thunderstorm Heavy Thunderstorms and Rain
10:12 PM 75.0 °F - 73.9 °F 96% 29.95 in 0.5 mi Variable 6.9 mph - 0.57 in Fog , Rain , Thunderstorm Heavy Thunderstorms and Rain
10:15 PM 75.0 °F - 73.9 °F 96% 29.94 in 0.5 mi WSW 5.8 mph - 0.68 in Fog , Rain Heavy Rain
10:25 PM 75.0 °F - 73.0 °F 94% 29.92 in 0.5 mi SSE 5.8 mph - 0.96 in Fog , Rain , Thunderstorm Heavy Rain
10:38 PM 73.9 °F - 73.0 °F 97% 29.91 in 1.0 mi SE 6.9 mph - 1.27 in Rain Heavy Rain
10:46 PM 75.0 °F - 73.9 °F 96% 29.91 in 3.0 mi Calm Calm - 1.30 in Rain Rain
10:53 PM 75.0 °F - 73.9 °F 96% 29.93 in 3.0 mi Calm Calm - 1.32 in Rain Rain
11:44 PM 75.9 °F - 73.9 °F 94% 29.90 in 10.0 mi NNW 3.5 mph - 0.01 in Rain Light Rain
11:53 PM 75.9 °F - 73.9 °F 94% 29.91 in 10.0 mi Calm Calm - 0.01 in   Mostly Cloudy